{"data":{"norad_id":67021,"epoch":"2026-05-25T01:14:37.089888Z","epoch_age_seconds":71239,"freshness":"FRESH","line1":"1 67021U 25293U   26145.05181817  .00013927  00000+0  11717-2 0  9996","line2":"2 67021  70.0003 262.0150 0003443 275.1449  84.9317 14.98360140 26321","mean_motion":14.9836014,"eccentricity":0.0003443,"inclination_deg":70.0003,"raan_deg":262.015,"arg_perigee_deg":275.1449,"mean_anomaly_deg":84.9317,"bstar":0.0011717,"rev_number":2632,"period_min":96.105065902247,"perigee_km":569.56976772081,"apogee_km":574.35560636531,"semimajor_km":6950.0996870431,"source":"CELESTRAK","updated_at":"2026-05-25T13:38:21.433433Z"}}